DLH8P EDDM-KBOS

Flight info

Callsign DLH8P
Flight time N/A
Altitude 36000
Route OLASO2E OLASO Z714 PELOG UM164 LUPEN/N0480F350 DCT POGOL DCT LUVAL DCT ROTSI/N0483F360 DCT AMODO DCT COHPA UM729 RESMI UN491 LGL UN502 JSY DCT LIZAD DCT LESLU DCT LIMRI/M085F380 NATE TUDEP/N0494F380 DCT EBONY DCT AJJAY OOSHN5
Aircraft A388/J-SADE2E3FGHIJ3J4J5M1RWXY/LB1D1

Departure

Time 2026-05-04 13:21
Airport Munich Airport (EDDM)

Arrival

Time N/A
Airport Boston Logan International Airport (KBOS)
Time Latitude Longitude Altitude Speed Heading
2026-05-04 12:55 48.35244 11.80045 1490 ft 0 kts 263°
2026-05-04 13:04 48.35245 11.80047 1490 ft 1 kts 263°
2026-05-04 13:04 48.35246 11.80072 1475 ft 3 kts 263°
2026-05-04 13:04 48.35249 11.80102 1475 ft 3 kts 263°
2026-05-04 13:04 48.35251 11.80130 1475 ft 3 kts 255°
2026-05-04 13:05 48.35258 11.80154 1475 ft 3 kts 234°
2026-05-04 13:05 48.35268 11.80169 1475 ft 3 kts 206°
2026-05-04 13:05 48.35280 11.80173 1475 ft 2 kts 176°
2026-05-04 13:05 48.35291 11.80172 1475 ft 3 kts 173°
2026-05-04 13:06 48.35311 11.80168 1475 ft 3 kts 173°
2026-05-04 13:06 48.35325 11.80165 1475 ft 1 kts 173°
2026-05-04 13:06 48.35326 11.80165 1475 ft 0 kts 173°
2026-05-04 13:11 48.35319 11.80167 1490 ft 4 kts 174°
2026-05-04 13:11 48.35270 11.80174 1477 ft 6 kts 173°
2026-05-04 13:11 48.35195 11.80189 1483 ft 16 kts 173°
2026-05-04 13:12 48.35138 11.80138 1479 ft 10 kts 257°
2026-05-04 13:12 48.35123 11.80000 1481 ft 17 kts 263°
2026-05-04 13:12 48.35109 11.79809 1487 ft 19 kts 263°
2026-05-04 13:12 48.35095 11.79616 1477 ft 13 kts 263°
2026-05-04 13:13 48.35127 11.79514 1475 ft 11 kts 339°
2026-05-04 13:13 48.35207 11.79497 1490 ft 13 kts 353°
2026-05-04 13:13 48.35299 11.79479 1478 ft 14 kts 353°
2026-05-04 13:13 48.35400 11.79463 1481 ft 15 kts 354°
2026-05-04 13:14 48.35514 11.79445 1475 ft 17 kts 354°
2026-05-04 13:14 48.35627 11.79425 1478 ft 17 kts 353°
2026-05-04 13:14 48.35749 11.79402 1490 ft 19 kts 353°
2026-05-04 13:14 48.35877 11.79379 1487 ft 17 kts 346°
2026-05-04 13:15 48.35992 11.79333 1479 ft 17 kts 354°
2026-05-04 13:15 48.36084 11.79273 1477 ft 12 kts 288°
2026-05-04 13:15 48.36080 11.79148 1489 ft 14 kts 262°
2026-05-04 13:15 48.36067 11.78979 1478 ft 20 kts 264°
2026-05-04 13:16 48.36049 11.78742 1479 ft 26 kts 263°
2026-05-04 13:16 48.36026 11.78449 1482 ft 29 kts 264°
2026-05-04 13:16 48.36004 11.78151 1476 ft 28 kts 264°
2026-05-04 13:16 48.35983 11.77862 1483 ft 28 kts 262°
2026-05-04 13:17 48.35959 11.77574 1484 ft 27 kts 263°
2026-05-04 13:17 48.35936 11.77293 1476 ft 27 kts 263°
2026-05-04 13:17 48.35916 11.77029 1490 ft 21 kts 263°
2026-05-04 13:17 48.35922 11.76893 1477 ft 13 kts 300°
2026-05-04 13:18 48.35995 11.76823 1477 ft 13 kts 351°
2026-05-04 13:18 48.36088 11.76803 1479 ft 14 kts 353°
2026-05-04 13:18 48.36184 11.76789 1490 ft 14 kts 355°
2026-05-04 13:18 48.36262 11.76781 1478 ft 7 kts 13°
2026-05-04 13:19 48.36276 11.76802 1478 ft 4 kts 76°
2026-05-04 13:19 48.36280 11.76830 1478 ft 0 kts 82°
2026-05-04 13:19 48.36283 11.76861 1480 ft 16 kts 82°
2026-05-04 13:20 48.36322 11.77403 1479 ft 88 kts 84°
2026-05-04 13:20 48.36416 11.78627 1486 ft 143 kts 83°
2026-05-04 13:20 48.36546 11.80260 1592 ft 167 kts 82°
2026-05-04 13:20 48.36684 11.81998 2010 ft 171 kts 82°
2026-05-04 13:21 48.36832 11.83822 2324 ft 179 kts 83°
2026-05-04 13:21 48.36960 11.85727 2728 ft 183 kts 83°
2026-05-04 13:21 48.37093 11.87592 3220 ft 177 kts 83°
2026-05-04 13:21 48.37228 11.89514 3401 ft 192 kts 83°
2026-05-04 13:22 48.37383 11.91566 3533 ft 208 kts 83°
2026-05-04 13:22 48.37555 11.93802 3677 ft 221 kts 83°
2026-05-04 13:22 48.37740 11.96184 3773 ft 241 kts 83°
2026-05-04 13:22 48.37596 11.98678 4388 ft 244 kts 110°
2026-05-04 13:23 48.36641 12.00795 5022 ft 251 kts 140°
2026-05-04 13:23 48.35205 12.02280 5849 ft 249 kts 154°
2026-05-04 13:23 48.33562 12.03031 6650 ft 246 kts 176°
2026-05-04 13:23 48.31832 12.02973 7253 ft 255 kts 184°
2026-05-04 13:24 48.30013 12.02821 7622 ft 271 kts 184°
2026-05-04 13:24 48.28108 12.02696 8323 ft 274 kts 183°
2026-05-04 13:24 48.26203 12.02584 9075 ft 275 kts 183°
2026-05-04 13:25 48.22348 12.02365 10522 ft 278 kts 183°
2026-05-04 13:25 48.20401 12.02254 11165 ft 280 kts 184°
2026-05-04 13:25 48.18431 12.02140 11824 ft 283 kts 184°
2026-05-04 13:25 48.16469 12.02026 12461 ft 285 kts 184°
2026-05-04 13:26 48.14477 12.01909 13105 ft 287 kts 184°
2026-05-04 13:26 48.12496 12.01793 13749 ft 289 kts 183°
2026-05-04 13:26 48.10462 12.01652 14218 ft 294 kts 188°
2026-05-04 13:26 48.08530 12.00709 14734 ft 294 kts 211°
2026-05-04 13:27 48.07004 11.98669 15285 ft 297 kts 233°
2026-05-04 13:27 48.06130 11.95862 15808 ft 302 kts 254°
2026-05-04 13:27 48.05647 11.92823 16319 ft 305 kts 254°
2026-05-04 13:27 48.05141 11.89728 16852 ft 307 kts 253°
2026-05-04 13:28 48.04622 11.86623 17377 ft 309 kts 253°
2026-05-04 13:28 48.04094 11.83493 17888 ft 311 kts 253°
2026-05-04 13:28 48.03560 11.80337 18325 ft 315 kts 253°
2026-05-04 13:28 48.03020 11.77152 18792 ft 316 kts 253°
2026-05-04 13:29 48.02478 11.73952 19219 ft 318 kts 253°
2026-05-04 13:29 48.01939 11.70781 19638 ft 320 kts 253°
2026-05-04 13:29 48.01396 11.67544 20081 ft 322 kts 256°
2026-05-04 13:29 48.01084 11.64203 20495 ft 327 kts 264°
2026-05-04 13:30 48.00954 11.60802 20921 ft 328 kts 264°
2026-05-04 13:30 48.00805 11.57383 21335 ft 330 kts 264°
2026-05-04 13:30 48.00645 11.53943 21745 ft 333 kts 264°
2026-05-04 13:30 48.00484 11.50522 22224 ft 333 kts 263°
2026-05-04 13:31 48.00319 11.47047 22643 ft 335 kts 264°
2026-05-04 13:31 48.00153 11.43558 23063 ft 337 kts 264°
2026-05-04 13:31 47.99985 11.40047 23477 ft 339 kts 264°
2026-05-04 13:31 47.99818 11.36565 23841 ft 341 kts 264°
2026-05-04 13:32 47.99647 11.33018 24208 ft 343 kts 264°
2026-05-04 13:32 47.99474 11.29447 24592 ft 344 kts 264°
2026-05-04 13:32 47.99299 11.25871 24972 ft 346 kts 264°
2026-05-04 13:32 47.99122 11.22279 25362 ft 348 kts 264°
2026-05-04 13:33 47.98943 11.18652 25766 ft 349 kts 264°
2026-05-04 13:33 47.98764 11.15067 26141 ft 352 kts 264°
2026-05-04 13:33 47.98581 11.11408 26505 ft 354 kts 264°